Regional Weather Roundup
Issued by NWS

Home | Current Version | Previous Version | Text Only | Print | Product List | Glossary Off
Versions: 1 2 3 4 5 6 7 8 9 10 11 12 13 14 15 16 17 18 19 20 21 22 23 24 25 26 27 28 29 30 31 32 33 34 35 36 37 38 39 40 41 42 43 44 45 46 47 48 49 50

000
ASUS43 KOAX 180202
RWRNE

WEATHER ROUNDUP FOR NEBRASKA
NATIONAL WEATHER SERVICE OMAHA NE
800 PM CST WED DEC 17 2014

NOTES: SATELLITE DATA IS BEING USED TO AUGMENT CLOUD COVER ABOVE
       12000 FEET.
       "FAIR" INDICATES FEW OR NO CLOUDS BELOW 12,000 FEET WITH NO
       SIGNIFICANT WEATHER AND/OR OBSTRUCTIONS TO VISIBILITY.

  * THESE STATIONS DO NOT REPORT WEATHER SUCH AS RAIN...SNOW OR FOG.

NEZ001>004-019>022-054>056-180300-
NEBRASKA PANHANDLE

CITY           SKY/WX    TMP DP  RH WIND       PRES   REMARKS
SCOTTSBLUFF    FOG       20  18  92 E8        29.99R VSB 1/2 WCI  10
ALLIANCE       FOG       22  20  92 S8        29.99S VSB 3/4 WCI  12
CHADRON        PTCLDY    14  11  87 CALM      30.02R
SIDNEY         FOG       21  19  92 SW8       29.98S VSB 3/4 WCI  11
$$

NEZ057>060-069>072-079>082-180300-
SOUTHWEST NEBRASKA

CITY           SKY/WX    TMP DP  RH WIND       PRES   REMARKS
NORTH PLATTE   CLOUDY    22  20  92 S6        30.11R WCI  14
IMPERIAL       CLOUDY    24  21  88 SE8       30.07S FOG     WCI  15
MCCOOK         CLOUDY    24  23  96 E7        30.12S FOG     WCI  16
$$

NEZ005>010-023>029-035>040-094-180300-
NORTH CENTRAL NEBRASKA

CITY           SKY/WX    TMP DP  RH WIND       PRES   REMARKS
VALENTINE      CLOUDY    22  20  92 S14       30.10S WCI   9
AINSWORTH      CLOUDY    20  19  96 S6        30.11S FOG     WCI  13
BROKEN BOW     CLOUDY    23  21  92 SE7       30.13S WCI  15
ORD            CLOUDY    23  20  88 SE5       30.16S WCI  17
$$

NEZ041-046>049-061>064-073>077-083>087-180300-
SOUTH CENTRAL NEBRASKA

CITY           SKY/WX    TMP DP  RH WIND       PRES   REMARKS
GRAND ISLAND   CLOUDY    24  18  77 SE6       30.20R WCI  17
AURORA         CLOUDY    25  19  76 SE8       30.20R WCI  16
HASTINGS       CLOUDY    25  17  72 E6        30.18R WCI  18
KEARNEY *      CLOUDY    25  19  80 E9        30.17S WCI  15
$$

NEZ011>018-030>034-042>045-180300-
NORTHEAST NEBRASKA

CITY           SKY/WX    TMP DP  RH WIND       PRES   REMARKS
NORFOLK        CLOUDY    25  16  68 E8        30.21R WCI  16
BLAIR          CLOUDY    27  20  75 NE6       30.23F WCI  21
COLUMBUS *     CLOUDY    25  14  63 E7        30.24R WCI  17
TEKAMAH        CLOUDY    27  19  72 E7        30.26F WCI  19
$$

NEZ050>053-065>068-078-088>093-180300-
SOUTHEAST NEBRASKA

CITY           SKY/WX    TMP DP  RH WIND       PRES   REMARKS
LINCOLN        CLOUDY    26  17  68 E8        30.26R WCI  18
OMAHA EPPLEY   CLOUDY    28  18  66 E5        30.27S WCI  23
FALLS CITY     CLOUDY    29  21  72 E3        30.26R
$$

NEZ044-045-051>053-067-180300-
OMAHA AREA

CITY           SKY/WX    TMP DP  RH WIND       PRES   REMARKS
OMAHA EPPLEY   CLOUDY    28  18  66 E5        30.27S WCI  23
BLAIR          CLOUDY    27  20  75 NE6       30.23F WCI  21
OFFUTT AFB     CLOUDY    28  19  69 E7        30.25F WCI  20
$$


USA.gov is the U.S. government's official web portal to all federal, state and local government web resources and services.